This is the latest recevied weather packets stored in our database for station/object EFTP. If no packets are shown the sender has not sent any weather packets the latest 10 day(s).
| Time | Temp. | Humidity | Pressure | Rain* | Wind** | Luminosity | Snow |
|---|---|---|---|---|---|---|---|
| 1777669621 | 6.67° C | 78% | 1014.5 hPa | - | - | - | - |
| 1777668421 | 7.22° C | 77% | 1014.6 hPa | - | - | - | - |
| 1777667221 | 7.78° C | 65% | 1014.5 hPa | - | - | - | - |
| 1777666021 | 7.78° C | 67% | 1014.6 hPa | - | - | - | - |
| 1777664821 | 9.44° C | 67% | 1014.7 hPa | - | - | - | - |
| 1777663621 | 11.11° C | 55% | 1014.8 hPa | - | - | - | - |
| 1777662421 | 12.22° C | 51% | 1014.9 hPa | - | - | - | - |
| 1777661221 | 14.44° C | 45% | 1014.7 hPa | - | - | - | - |
| 1777660021 | 15° C | 43% | 1014.7 hPa | - | - | - | - |
| 1777658821 | 15.56° C | 41% | 1014.7 hPa | - | - | - | - |
| 1777657621 | 16.67° C | 39% | 1014.6 hPa | - | - | - | - |
| 1777656421 | 17.78° C | 32% | 1014.6 hPa | - | - | - | - |
| 1777655221 | 18.33° C | 29% | 1014.7 hPa | - | - | - | - |
| 1777654020 | 18.89° C | 28% | 1014.8 hPa | - | - | - | - |
| 1777652820 | 18.89° C | 29% | 1015 hPa | - | - | - | - |
| 1777651620 | 19.44° C | 29% | 1015.2 hPa | - | - | - | - |
| 1777650421 | 19.44° C | 29% | 1015.2 hPa | - | - | - | - |
| 1777649220 | 19.44° C | 29% | 1015.5 hPa | - | - | - | - |
| 1777648020 | 19.44° C | 27% | 1015.7 hPa | - | - | - | - |
| 1777646820 | 18.89° C | 28% | 1015.9 hPa | - | - | - | - |
| 1777645620 | 19.44° C | 27% | 1016.1 hPa | - | - | - | - |
| 1777644420 | 19.44° C | 29% | 1016.4 hPa | - | - | - | - |
| 1777643220 | 18.89° C | 29% | 1016.6 hPa | - | - | - | - |
| 1777642020 | 18.89° C | 30% | 1016.8 hPa | - | - | - | - |
| 1777640820 | 19.44° C | 30% | 1017.1 hPa | - | - | - | - |
* Rain since midnight (hover to see other rain measurements)
** Current wind speed in m/s (hover to see current wind gust speed)